Flag for Brazil Weather past 2 weeks in Belém, Pará, Brazil

Now
75 °F

Passing clouds.


Feels Like: 73 °F
Forecast: 74 / 86 °F
Wind: 3 mph from East

Location: Belem Aeroporto

Current Time: May 23, 2015 at 3:41:25 AM

Latest Report: May 23, 2015 at 3:00 AM


Visibility: N/A

Pressure: 29.89 "Hg

Humidity: 100%

Dew point: 75 °F

Location of BelémLocation

Historic Weather in Belém — Graph

°F

Belém temperature yesterday

Maximum temperature yesterday: 90 °F (at 2:00 PM)
Minimum temperature yesterday: 75 °F (at 2:00 AM)
Average temperature yesterday: 81 °F

Past Weeks' High & Low Weather Summary

 TemperatureHumidityPressure
High90 °F (May 10, 3:00 PM)100% (May 8, 4:00 AM)29.98 "Hg (May 8, 4:00 AM)
Low39 °F (May 14, 4:00 PM)52% (May 22, 2:00 PM)29.80 "Hg (May 10, 3:00 PM)
Average80 °F85%29.89 "Hg
* Reported May 8 2:00 AM — May 23 2:00 AM, Belém, Weather by CustomWeather, © 2015

Note: Actual official high and low records may vary slightly from our data, if they occured in-between our weather recording intervals... More about our weather records

Advertising

Belém weather history for previous 24 hours

 ConditionsComfort  
Time TempWeatherWind HumidityBarometerVisibility
2:00 AM
Sat, May 23
77 °FPassing clouds.5 mph94%29.92 "HgN/A
1:00 AM77 °FPassing clouds.3 mph94%29.95 "HgN/A
12:00 AM77 °FPartly cloudy.7 mph94%29.95 "HgN/A
11:00 PM
Fri, May 22
79 °FPassing clouds.5 mph89%29.95 "HgN/A
10:00 PM81 °FPassing clouds.6 mph84%29.95 "HgN/A
9:00 PM81 °FThundershowers. Passing clouds.6 mph84%N/AN/A
8:00 PM82 °FPassing clouds.3 mph79%29.92 "HgN/A
7:00 PM82 °FPassing clouds.5 mph79%29.89 "HgN/A
6:00 PM82 °FPartly sunny.6 mph74%29.86 "HgN/A
5:00 PM82 °FPartly sunny.8 mph84%29.86 "HgN/A
4:00 PM81 °FPartly sunny.8 mph84%29.86 "HgN/A
3:00 PM86 °FPartly sunny.9 mph70%29.89 "HgN/A
2:00 PM90 °FScattered clouds.12 mph52%29.92 "HgN/A
1:00 PM88 °FScattered clouds.10 mph59%29.92 "HgN/A
12:00 PM88 °FPartly sunny.12 mph59%29.98 "HgN/A
11:00 AM86 °FPartly sunny.12 mph66%29.98 "HgN/A
10:00 AM84 °FPartly sunny.12 mph74%29.98 "HgN/A
9:00 AM82 °FPassing clouds.10 mph79%29.98 "HgN/A
8:00 AM79 °FSunny.7 mph89%29.98 "Hg10 mi
7:00 AM75 °FSunny.5 mph94%29.95 "Hg10 mi
6:00 AM75 °FClear.2 mph94%29.92 "Hg10 mi
5:00 AM75 °FClear.3 mph94%29.95 "Hg10 mi
4:00 AM75 °FClear.5 mph94%29.89 "Hg10 mi
3:00 AM75 °FClear.5 mph94%29.89 "Hg10 mi
Weather by CustomWeather, © 2015

See weather overviewHow to use our weather pages